GW6464 Weather Reports


time (UTC)temp
C
wind
direction
speed
KPH
gust
KPH
rain 1hr
cm
rain 24hr
cm
rain mn
cm
humidity
%
barometer
mb
20260504082006 11 288 0.0 3.2 0.00 0.20 0.00 35 1008.8
20260504081514 11 288 0.0 4.8 0.00 0.20 0.00 36 1008.8
20260504081010 11 288 0.0 4.8 0.00 0.20 0.00 34 1008.7
20260504080503 11 252 0.0 4.8 0.00 0.20 0.00 34 1008.8
20260504050504 13 250 1.6 4.8 0.00 0.20 0.20 27 1008.2
20260504050017 13 248 1.6 4.8 0.00 0.20 0.20 28 1008.2
20260504045510 12 248 1.6 4.8 0.00 0.20 0.20 29 1008.1
20260504045003 12 242 1.6 4.8 0.00 0.20 0.20 29 1008.2
20260504044515 12 242 3.2 4.8 0.00 0.20 0.20 30 1008.2
20260504044011 12 241 1.6 6.4 0.00 0.20 0.20 31 1008.3
20260504043508 12 241 0.0 6.4 0.00 0.20 0.20 31 1008.3
20260504043011 12 244 3.2 9.7 0.00 0.20 0.20 32 1008.3
20260504042508 12 238 0.0 9.7 0.00 0.20 0.20 33 1008.3
20260504042009 12 238 1.6 6.4 0.00 0.20 0.20 33 1008.4
20260504041508 13 240 1.6 4.8 0.00 0.20 0.20 35 1008.5
20260504041007 12 240 1.6 6.4 0.00 0.20 0.20 34 1008.5
20260504040508 13 239 3.2 6.4 0.00 0.20 0.20 34 1008.5
20260504040026 13 240 1.6 4.8 0.00 0.20 0.20 34 1008.5
20260504035505 13 238 1.6 4.8 0.00 0.20 0.20 35 1008.5
20260504035007 13 231 1.6 4.8 0.00 0.20 0.20 35 1008.6
20260504034522 13 236 1.6 4.8 0.00 0.20 0.20 35 1008.7
20260504034010 13 236 1.6 6.4 0.00 0.20 0.20 35 1008.7
20260504033506 13 235 1.6 6.4 0.00 0.20 0.20 35 1008.8
20260504033018 13 232 1.6 6.4 0.00 0.20 0.20 34 1008.7
20260504032507 13 236 1.6 6.4 0.00 0.20 0.20 33 1008.7
20260504032007 13 234 1.6 6.4 0.00 0.20 0.20 33 1008.7
20260504031516 13 239 0.0 4.8 0.00 0.20 0.20 34 1008.7
20260504031010 13 233 1.6 4.8 0.00 0.20 0.20 34 1008.8
20260504030512 13 231 0.0 3.2 0.00 0.20 0.20 35 1008.8
20260504030013 13 231 0.0 4.8 0.00 0.20 0.20 35 1008.9
20260504025505 13 231 0.0 4.8 0.00 0.20 0.20 35 1008.8
20260504025011 13 230 1.6 6.4 0.00 0.20 0.20 36 1008.8
20260504024512 13 232 0.0 8.0 0.00 0.20 0.20 37 1008.8
20260504024006 13 238 1.6 8.0 0.00 0.20 0.20 37 1008.9
20260504023506 13 232 1.6 4.8 0.00 0.20 0.20 38 1008.9
20260504023025 13 248 1.6 6.4 0.00 0.20 0.20 39 1008.8
20260504022506 13 251 0.0 6.4 0.00 0.20 0.20 38 1008.8
20260504022009 13 328 0.0 3.2 0.00 0.20 0.20 37 1008.7
20260504021525 13 328 0.0 3.2 0.00 0.20 0.20 38 1008.7
20260504021008 13 328 0.0 4.8 0.00 0.20 0.20 38 1008.7
20260504020506 15 339 0.0 4.8 0.00 0.20 0.20 36 1008.7
20260504020026 15 352 0.0 3.2 0.00 0.20 0.20 34 1008.8
20260504015510 16 352 0.0 1.6 0.00 0.20 0.20 28 1008.9
20260504015008 16 352 0.0 1.6 0.00 0.20 0.20 29 1008.9
20260504014518 16 352 0.0 1.6 0.00 0.20 0.20 33 1008.9
20260504014013 17 352 0.0 1.6 0.00 0.20 0.20 28 1008.9
20260504013510 17 352 0.0 1.6 0.00 0.20 0.20 28 1009.0
20260504013028 17 352 0.0 1.6 0.00 0.20 0.20 29 1009.0
20260504012506 17 352 0.0 1.6 0.00 0.20 0.20 30 1009.0
20260504012015 17 355 0.0 1.6 0.00 0.20 0.20 28 1009.1
20260504011510 17 352 0.0 6.4 0.00 0.20 0.20 26 1009.1
20260504011012 18 352 0.0 6.4 0.00 0.20 0.20 25 1009.2
20260504010514 18 352 1.6 8.0 0.00 0.20 0.20 24 1009.2
20260504010026 18 352 3.2 8.0 0.00 0.20 0.20 24 1009.2
20260504005505 18 352 3.2 9.7 0.00 0.20 0.20 24 1009.3
20260504005006 18 352 3.2 9.7 0.00 0.20 0.20 23 1009.3
20260504004527 18 340 4.8 9.7 0.00 0.20 0.20 21 1009.3
20260504004007 18 336 4.8 12.9 0.00 0.20 0.20 22 1009.4
20260504003511 18 348 4.8 12.9 0.00 0.20 0.20 20 1009.4
20260504003036 19 360 6.4 12.9 0.00 0.20 0.20 21 1009.5
20260504002510 19 352 4.8 9.7 0.00 0.20 0.20 22 1009.5
20260504002007 19 360 4.8 9.7 0.00 0.20 0.20 20 1009.6
20260504001520 19 336 6.4 14.5 0.00 0.20 0.20 20 1009.6
20260504001009 19 319 8.0 14.5 0.00 0.20 0.20 19 1009.6
20260504000509 20 5 8.0 14.5 0.00 0.20 0.20 17 1009.7
20260504000004 20 13 4.8 12.9 0.00 0.20 0.20 18 1009.7
20260503235503 20 307 3.2 12.9 0.00 0.20 0.20 16 1009.8
20260503235003 20 351 6.4 19.3 0.00 0.20 0.20 20 1009.9
20260503234503 20 320 6.4 19.3 0.00 0.20 0.20 17 1009.9
20260503234003 20 348 8.0 16.1 0.00 0.20 0.20 17 1009.8
20260503233505 20 341 6.4 20.9 0.00 0.20 0.20 16 1009.9
20260503233002 20 11 11.3 20.9 0.00 0.20 0.20 17 1009.9
20260503232503 20 342 12.9 17.7 0.00 0.20 0.20 17 1010.1
20260503232003 20 348 9.7 19.3 0.00 0.20 0.20 19 1010.1
20260503231506 20 320 4.8 19.3 0.00 0.20 0.20 19 1010.1
20260503231004 20 308 4.8 20.9 0.00 0.20 0.20 21 1010.1
20260503230509 20 309 8.0 20.9 0.00 0.20 0.20 20 1010.2
20260503230004 20 328 8.0 19.3 0.00 0.20 0.20 22 1010.3
20260503225503 20 340 8.0 20.9 0.00 0.20 0.20 22 1010.4
20260503225005 20 311 4.8 20.9 0.00 0.20 0.20 22 1010.5
20260503224503 20 344 9.7 20.9 0.00 0.20 0.20 24 1010.6
20260503224005 20 26 6.4 19.3 0.00 0.20 0.20 26 1010.5
20260503223503 20 360 6.4 19.3 0.00 0.20 0.20 23 1010.7
20260503223004 20 9 12.9 19.3 0.00 0.20 0.20 25 1010.7
20260503222504 20 360 3.2 19.3 0.00 0.20 0.20 24 1010.7
20260503222004 20 344 6.4 27.4 0.00 0.20 0.20 27 1010.8
20260503221506 20 347 11.3 27.4 0.00 0.20 0.20 28 1010.8
20260503221004 20 331 6.4 16.1 0.00 0.20 0.20 26 1010.8
20260503220504 19 10 6.4 9.7 0.00 0.20 0.20 27 1010.9
20260503220016 18 31 3.2 8.0 0.00 0.20 0.20 32 1011.0
20260503215502 18 320 1.6 6.4 0.00 0.20 0.20 28 1011.0
20260503215003 18 325 1.6 6.4 0.00 0.20 0.20 31 1011.1
20260503214503 18 345 3.2 9.7 0.00 0.20 0.20 31 1011.2
20260503214003 18 40 1.6 9.7 0.00 0.20 0.20 29 1011.3
20260503213504 18 334 0.0 9.7 0.00 0.20 0.20 30 1011.5
20260503213011 18 338 3.2 9.7 0.00 0.20 0.20 27 1011.7
20260503212508 19 341 3.2 8.0 0.00 0.20 0.20 26 1011.8
20260503212004 18 342 1.6 8.0 0.00 0.20 0.20 29 1011.7
20260503211505 19 224 0.0 4.8 0.00 0.20 0.20 26 1011.8
20260503211004 18 10 0.0 12.9 0.00 0.20 0.20 32 1011.9
20260503210504 18 235 3.2 12.9 0.00 0.20 0.20 27 1012.1
20260503210005 18 244 6.4 12.9 0.00 0.20 0.20 31 1012.2
20260503205504 18 225 4.8 14.5 0.00 0.20 0.20 31 1012.2
20260503205003 18 220 4.8 14.5 0.00 0.20 0.20 33 1012.3
20260503204508 18 242 6.4 16.1 0.00 0.20 0.20 36 1012.4
20260503204003 18 225 6.4 16.1 0.00 0.20 0.20 34 1012.4
20260503203503 19 232 6.4 17.7 0.00 0.20 0.20 33 1012.7
20260503203006 19 236 4.8 17.7 0.00 0.20 0.20 29 1012.8
20260503202503 19 295 4.8 17.7 0.00 0.20 0.20 25 1012.8
20260503202005 18 13 8.0 17.7 0.00 0.20 0.20 30 1012.9
20260503201509 17 352 1.6 17.7 0.00 0.20 0.20 29 1012.8
20260503201004 18 311 11.3 17.7 0.00 0.20 0.20 27 1012.9
20260503200503 18 5 3.2 14.5 0.00 0.20 0.20 30 1013.0
20260503200010 18 322 4.8 20.9 0.00 0.20 0.20 27 1013.0
20260503195504 18 324 6.4 20.9 0.00 0.20 0.20 27 1013.0
20260503195004 19 323 4.8 20.9 0.00 0.20 0.20 27 1013.0
20260503194512 19 24 9.7 17.7 0.00 0.20 0.20 29 1013.0
20260503194004 18 350 3.2 16.1 0.00 0.20 0.20 27 1013.3
20260503193509 19 5 8.0 16.1 0.00 0.20 0.20 30 1013.3
20260503193008 19 343 6.4 12.9 0.00 0.20 0.20 31 1013.3
20260503192504 19 344 3.2 9.7 0.00 0.20 0.20 29 1013.3
20260503192003 19 325 3.2 17.7 0.00 0.20 0.20 31 1013.4
20260503191510 18 10 3.2 17.7 0.00 0.20 0.20 27 1013.4
20260503191006 18 355 3.2 9.7 0.00 0.20 0.20 30 1013.4
20260503190504 18 305 3.2 16.1 0.00 0.20 0.20 29 1013.6
20260503190010 17 332 6.4 17.7 0.00 0.20 0.20 30 1013.7
20260503185503 17 337 3.2 17.7 0.00 0.20 0.20 29 1013.7
20260503185004 17 352 4.8 17.7 0.00 0.20 0.20 33 1013.9
20260503184516 17 343 1.6 8.0 0.00 0.20 0.20 33 1013.9
20260503184003 17 28 4.8 19.3 0.00 0.20 0.20 31 1013.9
20260503183504 17 43 3.2 19.3 0.00 0.20 0.20 33 1014.0
20260503183011 17 350 6.4 17.7 0.00 0.20 0.20 29 1014.0
20260503182505 17 352 9.7 17.7 0.00 0.20 0.20 30 1014.2
20260503182004 17 29 6.4 14.5 0.00 0.20 0.20 34 1014.2
20260503181512 17 346 4.8 11.3 0.00 0.20 0.20 32 1014.2
20260503181005 16 331 1.6 11.3 0.00 0.20 0.20 29 1014.3
20260503180507 16 5 3.2 9.7 0.00 0.20 0.20 32 1014.4
20260503180009 16 347 3.2 14.5 0.00 0.20 0.20 31 1014.5
20260503175506 16 340 6.4 16.1 0.00 0.20 0.20 36 1014.5
20260503175006 16 128 3.2 16.1 0.00 0.20 0.20 35 1014.6
20260503174512 16 133 6.4 14.5 0.00 0.20 0.20 34 1014.6
20260503174005 16 194 6.4 14.5 0.00 0.20 0.20 36 1014.7
20260503173506 16 175 6.4 16.1 0.00 0.20 0.20 37 1014.7
20260503173011 16 159 4.8 16.1 0.00 0.20 0.20 36 1014.6
20260503172504 15 125 4.8 16.1 0.00 0.20 0.20 41 1014.7
20260503172006 15 163 4.8 16.1 0.00 0.20 0.20 41 1014.8
20260503171515 15 143 6.4 17.7 0.00 0.20 0.20 43 1014.7
20260503171004 15 149 8.0 17.7 0.00 0.20 0.20 42 1014.9
20260503170507 15 142 8.0 16.1 0.00 0.20 0.20 45 1014.8
20260503151006 13 24 3.2 9.7 0.00 0.00 0.00 40 1015.7
20260503150506 12 345 4.8 9.7 0.00 0.00 0.00 41 1015.8
20260503131002 8 164 1.6 8.0 0.00 0.00 0.00 52 1015.9
20260503130504 8 163 3.2 8.0 0.00 0.00 0.00 53 1015.9
20260503110502 6 267 0.0 3.2 0.00 0.00 0.00 56 1016.9